• In Deutschland
  • Länderverzeichnis
  • Für 7 Tage
  • Wassertemperatur
  • Satellitenkarten
  • Wetterkarte
  • Widgets
  • user-avatar
    Anmelden

    Stündliche Wetter Markkleeberg

    Heute, 11 Dezember, Montag

    Zeit Temperatur Niederschläge Wind Luftdruck Luftfeuchtigkeit
    00:00 +3°C° 0,3 mm 7 m/S 726 mmHg 84%
    01:00 +2°C° 0 mm 8 m/S 726 mmHg 81%
    02:00 +3°C° 0,1 mm 7 m/S 727 mmHg 82%
    03:00 +3°C° 0,1 mm 7 m/S 727 mmHg 83%
    04:00 +3°C° 0,1 mm 6 m/S 728 mmHg 83%
    05:00 +3°C° 0 mm 5 m/S 728 mmHg 85%
    06:00 +2°C° 0 mm 5 m/S 729 mmHg 87%
    07:00 +2°C° 0 mm 3 m/S 730 mmHg 90%
    08:00 +4°C° 0 mm 2 m/S 730 mmHg 90%
    09:00 +4°C° 0 mm 2 m/S 730 mmHg 90%
    10:00 +5°C° 0 mm 1 m/S 731 mmHg 90%
    11:00 +4°C° 0,5 mm 2 m/S 730 mmHg 91%
    12:00 +4°C° 0,5 mm 2 m/S 730 mmHg 91%
    13:00 +4°C° 0 mm 3 m/S 729 mmHg 94%
    14:00 +4°C° 0,3 mm 3 m/S 728 mmHg 92%
    15:00 +4°C° 0,3 mm 4 m/S 728 mmHg 90%
    16:00 +5°C° 0,3 mm 4 m/S 728 mmHg 89%
    17:00 +5°C° 0,5 mm 4 m/S 728 mmHg 89%
    18:00 +4°C° 0,5 mm 3 m/S 728 mmHg 90%
    19:00 +4°C° 0,5 mm 3 m/S 728 mmHg 91%
    20:00 +5°C° 0,3 mm 3 m/S 728 mmHg 90%
    21:00 +5°C° 0,3 mm 4 m/S 728 mmHg 89%
    22:00 +5°C° 0,3 mm 4 m/S 729 mmHg 89%
    23:00 +5°C° 0,1 mm 5 m/S 729 mmHg 87%

    Morgen, 12 Dezember, Dienstag

    Zeit Temperatur Niederschläge Wind Luftdruck Luftfeuchtigkeit
    00:00 +5°C° 0,1 mm 5 m/S 730 mmHg 85%
    01:00 +5°C° 0,1 mm 5 m/S 730 mmHg 83%
    02:00 +4°C° 0,1 mm 6 m/S 731 mmHg 80%
    03:00 +4°C° 0,1 mm 6 m/S 731 mmHg 78%
    04:00 +4°C° 0,1 mm 7 m/S 731 mmHg 76%
    05:00 +4°C° 0 mm 8 m/S 732 mmHg 75%
    06:00 +2°C° 0 mm 9 m/S 733 mmHg 74%
    07:00 +2°C° 0 mm 10 m/S 734 mmHg 73%
    08:00 +2°C° 0 mm 10 m/S 735 mmHg 73%
    09:00 +2°C° 0 mm 10 m/S 737 mmHg 73%
    10:00 +1°C° 0 mm 10 m/S 738 mmHg 73%
    11:00 +1°C° 0 mm 10 m/S 739 mmHg 70%
    12:00 +1°C° 0 mm 10 m/S 741 mmHg 68%
    13:00 +1°C° 0 mm 10 m/S 742 mmHg 65%
    14:00 +1°C° 0 mm 9 m/S 743 mmHg 66%
    15:00 +1°C° 0 mm 9 m/S 744 mmHg 67%
    16:00 0°C° 0 mm 8 m/S 745 mmHg 68%
    17:00 0°C° 0 mm 7 m/S 746 mmHg 71%
    18:00 0°C° 0 mm 7 m/S 747 mmHg 74%
    19:00 0°C° 0 mm 7 m/S 748 mmHg 77%
    20:00 -1°C° 0 mm 6 m/S 749 mmHg 79%
    21:00 -1°C° 0 mm 6 m/S 749 mmHg 80%
    22:00 0°C° 0 mm 5 m/S 750 mmHg 82%
    23:00 -1°C° 0 mm 5 m/S 751 mmHg 83%

    übermorgen, 13 Dezember, Mittwoch

    Zeit Temperatur Niederschläge Wind Luftdruck Luftfeuchtigkeit
    00:00 -1°C° 0 mm 5 m/S 751 mmHg 84%
    01:00 -1°C° 0 mm 5 m/S 751 mmHg 84%
    02:00 -1°C° 0 mm 5 m/S 751 mmHg 84%
    03:00 -1°C° 0 mm 5 m/S 751 mmHg 83%
    04:00 -1°C° 0 mm 5 m/S 751 mmHg 83%
    05:00 -1°C° 0 mm 5 m/S 751 mmHg 82%
    06:00 -1°C° 0 mm 5 m/S 751 mmHg 81%
    07:00 -1°C° 0 mm 5 m/S 751 mmHg 81%
    08:00 -2°C° 0 mm 6 m/S 751 mmHg 78%
    09:00 -1°C° 0 mm 6 m/S 750 mmHg 76%
    10:00 -1°C° 0 mm 7 m/S 750 mmHg 73%
    11:00 0°C° 0 mm 7 m/S 749 mmHg 70%
    12:00 0°C° 0 mm 7 m/S 748 mmHg 68%
    13:00 +1°C° 0 mm 8 m/S 747 mmHg 66%
    14:00 +2°C° 0 mm 7 m/S 746 mmHg 66%
    15:00 0°C° 0 mm 7 m/S 745 mmHg 67%
    16:00 0°C° 0 mm 7 m/S 744 mmHg 68%
    17:00 0°C° 0,3 mm 7 m/S 743 mmHg 69%
    18:00 0°C° 0,3 mm 8 m/S 743 mmHg 70%
    19:00 0°C° 0,3 mm 8 m/S 742 mmHg 72%
    20:00 +1°C° 0,2 mm 8 m/S 741 mmHg 73%
    21:00 +1°C° 0,2 mm 8 m/S 740 mmHg 75%
    22:00 +2°C° 0,2 mm 7 m/S 739 mmHg 77%
    23:00 +2°C° 0 mm 8 m/S 738 mmHg 78%

    14 Dezember, Donnerstag

    Zeit Temperatur Niederschläge Wind Luftdruck Luftfeuchtigkeit
    00:00 +2°C° 0 mm 8 m/S 737 mmHg 78%
    01:00 +2°C° 0 mm 8 m/S 736 mmHg 79%
    02:00 +4°C° 0,5 mm 8 m/S 736 mmHg 79%
    03:00 +4°C° 0,5 mm 7 m/S 736 mmHg 79%
    04:00 +4°C° 0,5 mm 7 m/S 736 mmHg 80%
    05:00 +3°C° 0,1 mm 7 m/S 736 mmHg 79%
    06:00 +2°C° 0,1 mm 7 m/S 736 mmHg 78%
    07:00 +2°C° 0,1 mm 7 m/S 737 mmHg 78%
    08:00 0°C° 0,2 mm 7 m/S 737 mmHg 74%
    09:00 0°C° 0,2 mm 7 m/S 738 mmHg 71%
    10:00 0°C° 0,2 mm 8 m/S 739 mmHg 68%
    11:00 +1°C° 0 mm 8 m/S 739 mmHg 64%
    12:00 +1°C° 0 mm 8 m/S 739 mmHg 61%
    13:00 +1°C° 0 mm 8 m/S 739 mmHg 57%
    14:00 +2°C° 0 mm 7 m/S 739 mmHg 62%
    15:00 +1°C° 0 mm 6 m/S 738 mmHg 67%
    16:00 +1°C° 0 mm 5 m/S 737 mmHg 72%
    17:00 +1°C° 0,2 mm 5 m/S 737 mmHg 75%
    18:00 +1°C° 0,2 mm 4 m/S 736 mmHg 78%
    19:00 +1°C° 0,2 mm 4 m/S 735 mmHg 81%
    20:00 +1°C° 0,9 mm 4 m/S 734 mmHg 82%
    21:00 +3°C° 0,9 mm 4 m/S 733 mmHg 84%
    22:00 +3°C° 0,9 mm 4 m/S 732 mmHg 86%
    23:00 +2°C° 0,5 mm 5 m/S 732 mmHg 84%

    15 Dezember, Freitag

    Zeit Temperatur Niederschläge Wind Luftdruck Luftfeuchtigkeit
    00:00 +2°C° 0,5 mm 6 m/S 732 mmHg 83%
    01:00 +2°C° 0,5 mm 7 m/S 732 mmHg 82%
    02:00 0°C° 0,9 mm 7 m/S 732 mmHg 83%
    03:00 0°C° 0,9 mm 7 m/S 733 mmHg 84%
    04:00 -1°C° 0,9 mm 7 m/S 734 mmHg 86%
    05:00 -1°C° 0,1 mm 7 m/S 735 mmHg 85%
    06:00 -2°C° 0,1 mm 6 m/S 736 mmHg 85%
    07:00 -1°C° 0,1 mm 5 m/S 737 mmHg 85%
    08:00 -1°C° 0 mm 5 m/S 737 mmHg 84%
    09:00 -1°C° 0 mm 5 m/S 737 mmHg 83%
    10:00 -1°C° 0 mm 5 m/S 738 mmHg 83%
    11:00 0°C° 0 mm 5 m/S 738 mmHg 82%
    12:00 0°C° 0 mm 5 m/S 737 mmHg 82%
    13:00 +1°C° 0 mm 5 m/S 737 mmHg 81%
    14:00 +1°C° 0 mm 4 m/S 737 mmHg 83%
    15:00 0°C° 0 mm 4 m/S 737 mmHg 84%
    16:00 0°C° 0 mm 3 m/S 737 mmHg 85%
    17:00 0°C° 0 mm 3 m/S 737 mmHg 86%
    18:00 0°C° 0 mm 3 m/S 738 mmHg 86%
    19:00 0°C° 0 mm 3 m/S 738 mmHg 87%
    20:00 0°C° 0 mm 3 m/S 738 mmHg 87%
    21:00 0°C° 0 mm 3 m/S 738 mmHg 88%
    22:00 0°C° 0 mm 3 m/S 738 mmHg 89%
    23:00 0°C° 0,1 mm 3 m/S 739 mmHg 89%

    16 Dezember, Samstag

    Zeit Temperatur Niederschläge Wind Luftdruck Luftfeuchtigkeit
    00:00 0°C° 0,1 mm 3 m/S 739 mmHg 89%
    01:00 0°C° 0,1 mm 3 m/S 739 mmHg 89%
    02:00 0°C° 0 mm 3 m/S 739 mmHg 90%
    03:00 0°C° 0 mm 3 m/S 739 mmHg 91%
    04:00 0°C° 0 mm 3 m/S 740 mmHg 91%
    05:00 0°C° 0 mm 3 m/S 740 mmHg 92%
    06:00 0°C° 0 mm 3 m/S 740 mmHg 93%
    07:00 -1°C° 0 mm 3 m/S 741 mmHg 94%
    08:00 0°C° 0,1 mm 3 m/S 741 mmHg 93%
    09:00 0°C° 0,1 mm 3 m/S 742 mmHg 92%
    10:00 -1°C° 0,1 mm 4 m/S 742 mmHg 91%
    11:00 0°C° 0,1 mm 4 m/S 743 mmHg 90%
    12:00 0°C° 0,1 mm 4 m/S 743 mmHg 89%
    13:00 0°C° 0,1 mm 4 m/S 743 mmHg 87%
    14:00 0°C° 0 mm 4 m/S 744 mmHg 88%
    15:00 0°C° 0 mm 4 m/S 744 mmHg 88%
    16:00 0°C° 0 mm 4 m/S 745 mmHg 89%
    17:00 -1°C° 0 mm 4 m/S 745 mmHg 89%
    18:00 -1°C° 0 mm 4 m/S 745 mmHg 90%
    19:00 -1°C° 0 mm 4 m/S 746 mmHg 90%
    20:00 -1°C° 0 mm 4 m/S 746 mmHg 90%
    21:00 -1°C° 0 mm 4 m/S 746 mmHg 90%
    22:00 -1°C° 0 mm 4 m/S 746 mmHg 89%
    23:00 -1°C° 0,4 mm 4 m/S 746 mmHg 89%
    Mehr zeigen